| time (UTC) | temp F | wind direction | speed knots | gust knots | rain 1hr in | rain 24hr in | rain mn in | humidity % | barometer mb |
| 20260509212918 | 87 | 121 | 2.6 | 5.2 | 0.00 | 1.06 | 1.06 | 43 | 1008.9 |
| 20260509212418 | 87 | 112 | 1.7 | 5.2 | 0.00 | 1.06 | 1.06 | 40 | 1009.0 |
| 20260509211918 | 87 | 110 | 1.7 | 4.3 | 0.00 | 1.06 | 1.06 | 37 | 1009.2 |
| 20260509211418 | 87 | 77 | 1.7 | 4.3 | 0.00 | 1.06 | 1.06 | 36 | 1009.1 |
| 20260509210934 | 86 | 92 | 2.6 | 5.2 | 0.00 | 1.06 | 1.06 | 42 | 1009.4 |
| 20260509210926 | 86 | 92 | 1.7 | 5.2 | 0.00 | 1.06 | 1.06 | 34 | 1009.1 |
| 20260509205912 | 85 | 119 | 2.6 | 5.2 | 0.00 | 1.06 | 1.06 | 42 | 1009.4 |
| 20260509205410 | 85 | 58 | 1.7 | 5.2 | 0.03 | 1.06 | 1.06 | 44 | 1009.3 |
| 20260509204909 | 85 | 91 | 1.7 | 5.2 | 0.22 | 1.06 | 1.06 | 42 | 1009.4 |
| 20260509204410 | 84 | 78 | 0.9 | 3.5 | 0.48 | 1.06 | 1.06 | 42 | 1009.6 |
| 20260509203902 | 83 | 30 | 0.0 | 2.6 | 0.66 | 1.06 | 1.06 | 43 | 1009.6 |
| 20260509203403 | 83 | 27 | 0.0 | 1.7 | 0.86 | 1.06 | 1.06 | 53 | 1009.7 |
| 20260509203145 | 82 | 27 | 0.0 | 1.7 | 0.93 | 1.06 | 1.06 | 56 | 1009.8 |
| 20260509202402 | 81 | 28 | 0.0 | 3.5 | 1.04 | 1.06 | 1.06 | 61 | 1009.7 |
| 20260509201903 | 79 | 19 | 0.0 | 3.5 | 1.05 | 1.06 | 1.06 | 63 | 1009.8 |
| 20260509201403 | 77 | 253 | 0.9 | 5.2 | 1.05 | 1.06 | 1.06 | 64 | 1009.9 |
| 20260509201144 | 76 | 253 | 2.6 | 7.0 | 1.05 | 1.06 | 1.06 | 66 | 1010.2 |
| 20260509200358 | 74 | 0 | 3.5 | 7.8 | 1.05 | 1.06 | 1.06 | 65 | 1010.6 |
| 20260509195855 | 74 | 0 | 7.0 | 17.4 | 1.04 | 1.05 | 1.06 | 59 | 1010.6 |
| 20260509195354 | 72 | 0 | 7.0 | 17.4 | 1.00 | 1.01 | 1.03 | 61 | 1011.1 |
| 20260509194850 | 69 | 0 | 3.5 | 15.6 | 0.83 | 0.84 | 0.86 | 69 | 1012.2 |
| 20260509194352 | 70 | 0 | 3.5 | 11.3 | 0.57 | 0.58 | 0.58 | 66 | 1012.1 |
| 20260509194132 | 73 | 0 | 4.3 | 11.3 | 0.39 | 0.40 | 0.41 | 64 | 1011.7 |
| 20260509193634 | 76 | 0 | 3.5 | 8.7 | 0.18 | 0.19 | 0.20 | 64 | 1011.4 |
| 20260509192852 | 79 | 225 | 3.5 | 11.3 | 0.12 | 0.13 | 0.15 | 62 | 1011.1 |
| 20260509192352 | 82 | 212 | 2.6 | 11.3 | 0.01 | 0.02 | 0.02 | 60 | 1010.9 |
| 20260509192128 | 83 | 163 | 1.7 | 5.2 | 0.00 | 0.01 | 0.01 | 61 | 1010.6 |
| 20260509191346 | 84 | 126 | 2.6 | 6.1 | 0.00 | 0.01 | 0.01 | 60 | 1010.2 |
| 20260509190848 | 84 | 132 | 1.7 | 6.1 | 0.00 | 0.01 | 0.01 | 60 | 1010.2 |
| 20260509190347 | 84 | 128 | 1.7 | 5.2 | 0.00 | 0.01 | 0.01 | 60 | 1010.0 |
| 20260509185847 | 84 | 132 | 2.6 | 6.1 | 0.00 | 0.01 | 0.01 | 60 | 1010.0 |
| 20260509185347 | 84 | 141 | 3.5 | 6.1 | 0.00 | 0.01 | 0.01 | 60 | 1010.2 |
| 20260509184842 | 85 | 128 | 2.6 | 6.1 | 0.00 | 0.01 | 0.01 | 59 | 1010.3 |
| 20260509184343 | 85 | 130 | 1.7 | 4.3 | 0.00 | 0.01 | 0.01 | 59 | 1010.4 |
| 20260509183844 | 85 | 223 | 1.7 | 6.1 | 0.00 | 0.01 | 0.01 | 59 | 1010.4 |
| 20260509183343 | 85 | 277 | 0.9 | 6.1 | 0.00 | 0.01 | 0.01 | 59 | 1010.5 |
| 20260509182843 | 86 | 236 | 1.7 | 6.1 | 0.00 | 0.01 | 0.01 | 58 | 1010.6 |
| 20260509182625 | 87 | 169 | 2.6 | 8.7 | 0.00 | 0.01 | 0.01 | 58 | 1010.7 |
| 20260509181839 | 87 | 234 | 1.7 | 8.7 | 0.00 | 0.01 | 0.01 | 57 | 1010.7 |
| 20260509181622 | 87 | 265 | 0.9 | 4.3 | 0.00 | 0.01 | 0.01 | 58 | 1010.8 |
| 20260509180839 | 87 | 278 | 0.9 | 4.3 | 0.00 | 0.01 | 0.01 | 55 | 1010.9 |
| 20260509180340 | 87 | 131 | 0.9 | 7.0 | 0.00 | 0.01 | 0.01 | 57 | 1011.1 |
| 20260509180120 | 86 | 154 | 1.7 | 7.0 | 0.00 | 0.01 | 0.01 | 55 | 1011.0 |
| 20260509175624 | 86 | 317 | 0.9 | 3.5 | 0.00 | 0.01 | 0.01 | 53 | 1011.0 |
| 20260509174835 | 86 | 287 | 0.9 | 3.5 | 0.00 | 0.01 | 0.01 | 55 | 1011.1 |
| 20260509174334 | 86 | 342 | 1.7 | 5.2 | 0.00 | 0.01 | 0.01 | 56 | 1011.0 |
| 20260509173836 | 85 | 284 | 1.7 | 6.1 | 0.00 | 0.01 | 0.01 | 56 | 1011.2 |
| 20260509173334 | 85 | 296 | 1.7 | 6.1 | 0.00 | 0.01 | 0.01 | 57 | 1011.3 |
| 20260509172834 | 85 | 246 | 0.9 | 3.5 | 0.00 | 0.01 | 0.01 | 59 | 1011.3 |
| 20260509172336 | 86 | 90 | 1.7 | 7.0 | 0.00 | 0.01 | 0.01 | 55 | 1011.5 |
| 20260509171833 | 86 | 165 | 1.7 | 7.0 | 0.00 | 0.01 | 0.01 | 56 | 1011.6 |
| 20260509171333 | 85 | 316 | 1.7 | 7.8 | 0.00 | 0.01 | 0.01 | 61 | 1011.7 |
| 20260509170827 | 86 | 311 | 1.7 | 7.8 | 0.00 | 0.01 | 0.01 | 59 | 1011.7 |
| 20260509170327 | 85 | 281 | 1.7 | 5.2 | 0.00 | 0.01 | 0.01 | 59 | 1011.7 |
| 20260509165828 | 85 | 202 | 1.7 | 5.2 | 0.00 | 0.01 | 0.01 | 61 | 1011.7 |
| 20260509165328 | 85 | 225 | 1.7 | 6.1 | 0.00 | 0.01 | 0.01 | 62 | 1011.6 |
| 20260509164825 | 85 | 262 | 0.9 | 6.1 | 0.00 | 0.01 | 0.01 | 62 | 1011.6 |
| 20260509164325 | 84 | 236 | 1.7 | 5.2 | 0.00 | 0.01 | 0.01 | 65 | 1011.5 |
| 20260509163823 | 84 | 252 | 2.6 | 6.1 | 0.00 | 0.01 | 0.01 | 65 | 1011.7 |
| 20260509163322 | 83 | 182 | 1.7 | 8.7 | 0.00 | 0.01 | 0.01 | 63 | 1011.7 |
| 20260509162822 | 83 | 260 | 1.7 | 8.7 | 0.00 | 0.01 | 0.01 | 65 | 1011.6 |
| 20260509162322 | 83 | 160 | 2.6 | 9.6 | 0.00 | 0.01 | 0.01 | 65 | 1011.6 |
| 20260509161820 | 83 | 218 | 3.5 | 9.6 | 0.00 | 0.01 | 0.01 | 65 | 1011.5 |
| 20260509161320 | 83 | 229 | 3.5 | 9.6 | 0.00 | 0.01 | 0.01 | 66 | 1011.5 |
| 20260509160847 | 82 | 200 | 3.5 | 9.6 | 0.00 | 0.01 | 0.01 | 66 | 1011.4 |
| 20260509160838 | 82 | 164 | 3.5 | 9.6 | 0.00 | 0.01 | 0.01 | 66 | 1011.4 |
| 20260509155816 | 82 | 154 | 3.5 | 10.4 | 0.00 | 0.01 | 0.01 | 67 | 1011.2 |
| 20260509155316 | 82 | 218 | 2.6 | 10.4 | 0.00 | 0.01 | 0.01 | 67 | 1011.3 |
| 20260509154841 | 81 | 197 | 2.6 | 7.8 | 0.00 | 0.01 | 0.01 | 69 | 1011.4 |
| 20260509154832 | 81 | 212 | 2.6 | 6.1 | 0.00 | 0.01 | 0.01 | 68 | 1011.5 |
| 20260509153818 | 80 | 146 | 2.6 | 7.8 | 0.00 | 0.01 | 0.01 | 70 | 1011.5 |
| 20260509153318 | 80 | 189 | 3.5 | 9.6 | 0.00 | 0.01 | 0.01 | 70 | 1011.4 |
| 20260509152814 | 79 | 211 | 3.5 | 9.6 | 0.00 | 0.01 | 0.01 | 70 | 1011.1 |
| 20260509152310 | 79 | 199 | 3.5 | 9.6 | 0.00 | 0.01 | 0.01 | 71 | 1011.2 |
| 20260509151811 | 79 | 201 | 3.5 | 9.6 | 0.00 | 0.01 | 0.01 | 71 | 1011.2 |
| 20260509151311 | 78 | 207 | 3.5 | 8.7 | 0.00 | 0.01 | 0.01 | 72 | 1011.2 |
| 20260509151051 | 78 | 224 | 2.6 | 8.7 | 0.00 | 0.01 | 0.01 | 72 | 1011.1 |
| 20260509150309 | 78 | 208 | 1.7 | 6.1 | 0.00 | 0.01 | 0.01 | 73 | 1011.1 |
| 20260509145803 | 77 | 215 | 1.7 | 6.1 | 0.00 | 0.01 | 0.01 | 74 | 1011.2 |
| 20260509145305 | 76 | 212 | 2.6 | 9.6 | 0.00 | 0.01 | 0.01 | 74 | 1011.2 |
| 20260509145042 | 76 | 209 | 2.6 | 9.6 | 0.00 | 0.01 | 0.01 | 76 | 1011.1 |
| 20260509144303 | 76 | 186 | 2.6 | 8.7 | 0.00 | 0.01 | 0.01 | 77 | 1011.0 |
| 20260509143832 | 75 | 226 | 1.7 | 6.1 | 0.00 | 0.01 | 0.01 | 80 | 1010.8 |
| 20260509143823 | 75 | 153 | 1.7 | 6.1 | 0.00 | 0.01 | 0.01 | 79 | 1010.9 |
| 20260509142802 | 74 | 182 | 3.5 | 8.7 | 0.00 | 0.01 | 0.01 | 80 | 1010.8 |
| 20260509142537 | 74 | 199 | 4.3 | 10.4 | 0.00 | 0.01 | 0.01 | 80 | 1010.8 |
| 20260509141755 | 74 | 166 | 4.3 | 10.4 | 0.00 | 0.01 | 0.01 | 80 | 1010.7 |
| 20260509141255 | 75 | 174 | 3.5 | 8.7 | 0.00 | 0.01 | 0.01 | 80 | 1010.6 |
| 20260509141035 | 76 | 165 | 3.5 | 8.7 | 0.00 | 0.01 | 0.01 | 82 | 1010.5 |
| 20260509140255 | 75 | 160 | 2.6 | 8.7 | 0.00 | 0.01 | 0.01 | 82 | 1010.3 |
| 20260509135756 | 76 | 148 | 0.9 | 6.1 | 0.00 | 0.01 | 0.01 | 82 | 1010.3 |
| 20260509135249 | 75 | 169 | 0.0 | 6.1 | 0.00 | 0.01 | 0.01 | 83 | 1010.5 |
| 20260509134747 | 75 | 154 | 0.9 | 4.3 | 0.00 | 0.01 | 0.01 | 83 | 1010.6 |
| 20260509134245 | 74 | 154 | 1.7 | 6.1 | 0.00 | 0.01 | 0.01 | 83 | 1010.8 |
| 20260509133743 | 74 | 156 | 1.7 | 6.1 | 0.00 | 0.01 | 0.01 | 83 | 1010.7 |
| 20260509133244 | 74 | 163 | 0.9 | 5.2 | 0.00 | 0.01 | 0.01 | 83 | 1010.8 |
| 20260509133024 | 73 | 208 | 0.9 | 2.6 | 0.00 | 0.01 | 0.01 | 83 | 1010.9 |
| 20260509132239 | 73 | 208 | 0.0 | 2.6 | 0.00 | 0.01 | 0.01 | 83 | 1010.9 |
| 20260509132019 | 73 | 269 | 0.0 | 1.7 | 0.00 | 0.01 | 0.01 | 83 | 1010.9 |
| 20260509131239 | 73 | 275 | 0.9 | 2.6 | 0.00 | 0.01 | 0.01 | 83 | 1011.0 |
| 20260509130737 | 73 | 276 | 0.9 | 2.6 | 0.00 | 0.01 | 0.01 | 83 | 1011.0 |
| 20260509130236 | 73 | 284 | 0.0 | 2.6 | 0.00 | 0.01 | 0.01 | 83 | 1011.0 |
| 20260509130019 | 73 | 288 | 0.9 | 1.7 | 0.00 | 0.01 | 0.01 | 83 | 1011.0 |
| 20260509125232 | 72 | 288 | 0.9 | 2.6 | 0.00 | 0.01 | 0.01 | 83 | 1010.9 |
| 20260509124731 | 72 | 288 | 0.9 | 2.6 | 0.00 | 0.01 | 0.01 | 83 | 1011.0 |
| 20260509124231 | 72 | 256 | 0.9 | 2.6 | 0.00 | 0.01 | 0.01 | 83 | 1010.8 |
| 20260509124015 | 72 | 208 | 0.9 | 2.6 | 0.00 | 0.01 | 0.01 | 83 | 1010.7 |
| 20260509123230 | 72 | 191 | 0.9 | 2.6 | 0.00 | 0.01 | 0.01 | 83 | 1010.7 |
| 20260509122725 | 72 | 109 | 0.0 | 2.6 | 0.00 | 0.01 | 0.01 | 83 | 1010.6 |
| 20260509122224 | 72 | 0 | 0.0 | 0.0 | 0.00 | 0.01 | 0.01 | 83 | 1010.7 |
| 20260509121957 | 72 | 32 | 0.0 | 0.0 | 0.00 | 0.01 | 0.01 | 83 | 1010.7 |
| 20260509121219 | 72 | 32 | 0.0 | 0.0 | 0.00 | 0.01 | 0.01 | 83 | 1010.7 |
| 20260509121001 | 72 | 32 | 0.0 | 0.0 | 0.00 | 0.01 | 0.01 | 82 | 1010.7 |
| 20260509120215 | 72 | 32 | 0.0 | 0.9 | 0.00 | 0.01 | 0.01 | 82 | 1010.7 |
| 20260509115715 | 72 | 32 | 0.9 | 3.5 | 0.00 | 0.01 | 0.01 | 82 | 1010.6 |
| 20260509115213 | 72 | 32 | 0.9 | 3.5 | 0.00 | 0.01 | 0.01 | 82 | 1010.9 |
| 20260509114713 | 72 | 0 | 0.0 | 2.6 | 0.01 | 0.01 | 0.01 | 82 | 1011.1 |
| 20260509114213 | 72 | 355 | 0.9 | 2.6 | 0.01 | 0.01 | 0.01 | 82 | 1011.2 |
| 20260509113714 | 72 | 316 | 0.9 | 3.5 | 0.01 | 0.01 | 0.01 | 82 | 1011.3 |
| 20260509113205 | 72 | 305 | 0.9 | 4.3 | 0.01 | 0.01 | 0.01 | 82 | 1011.4 |
| 20260509112706 | 72 | 335 | 0.9 | 4.3 | 0.01 | 0.01 | 0.01 | 82 | 1011.6 |
| 20260509112206 | 72 | 22 | 0.9 | 3.5 | 0.01 | 0.01 | 0.01 | 82 | 1011.8 |
| 20260509112013 | 73 | 321 | 0.9 | 4.3 | 0.01 | 0.01 | 0.01 | 82 | 1011.9 |
| 20260509112009 | 72 | 355 | 0.9 | 4.3 | 0.01 | 0.01 | 0.01 | 82 | 1011.9 |
| 20260509110707 | 72 | 74 | 0.0 | 1.7 | 0.01 | 0.01 | 0.01 | 82 | 1011.8 |
| 20260509110202 | 72 | 74 | 0.0 | 1.7 | 0.01 | 0.01 | 0.01 | 82 | 1011.7 |
| 20260509105702 | 72 | 74 | 0.0 | 0.0 | 0.01 | 0.01 | 0.01 | 82 | 1011.7 |
| 20260509105203 | 72 | 74 | 0.0 | 0.0 | 0.01 | 0.01 | 0.01 | 82 | 1011.9 |
| 20260509104941 | 72 | 74 | 0.0 | 2.6 | 0.00 | 0.00 | 0.00 | 82 | 1011.9 |
| 20260509104200 | 72 | 74 | 0.0 | 2.6 | 0.00 | 0.00 | 0.00 | 82 | 1011.8 |
| 20260509103701 | 72 | 74 | 0.0 | 1.7 | 0.00 | 0.00 | 0.00 | 82 | 1011.8 |
| 20260509103156 | 72 | 74 | 0.0 | 2.6 | 0.00 | 0.00 | 0.00 | 82 | 1011.8 |
| 20260509102939 | 72 | 74 | 0.0 | 2.6 | 0.00 | 0.00 | 0.00 | 82 | 1011.9 |
| 20260509102157 | 72 | 76 | 0.9 | 2.6 | 0.00 | 0.00 | 0.00 | 81 | 1011.9 |
| 20260509101657 | 73 | 77 | 0.9 | 2.6 | 0.00 | 0.00 | 0.00 | 81 | 1011.7 |
| 20260509101154 | 73 | 80 | 0.0 | 2.6 | 0.00 | 0.00 | 0.00 | 81 | 1011.7 |
| 20260509100655 | 73 | 153 | 0.0 | 0.0 | 0.00 | 0.00 | 0.00 | 81 | 1011.5 |
| 20260509100149 | 73 | 163 | 0.0 | 0.0 | 0.00 | 0.00 | 0.00 | 81 | 1011.4 |
| 20260509095923 | 72 | 163 | 0.0 | 0.0 | 0.00 | 0.00 | 0.00 | 81 | 1011.2 |
| 20260509095145 | 72 | 163 | 0.0 | 0.0 | 0.00 | 0.00 | 0.00 | 81 | 1011.0 |
| 20260509094643 | 72 | 163 | 0.0 | 0.0 | 0.00 | 0.00 | 0.00 | 81 | 1010.9 |
| 20260509094143 | 72 | 163 | 0.0 | 0.0 | 0.00 | 0.00 | 0.00 | 81 | 1010.6 |
| 20260509093637 | 72 | 163 | 0.0 | 0.0 | 0.00 | 0.00 | 0.00 | 81 | 1010.6 |
| 20260509093134 | 72 | 163 | 0.0 | 0.9 | 0.00 | 0.00 | 0.00 | 81 | 1010.4 |
| 20260509092632 | 72 | 163 | 0.0 | 0.9 | 0.00 | 0.00 | 0.00 | 81 | 1010.4 |
| 20260509092408 | 72 | 163 | 0.0 | 0.9 | 0.00 | 0.00 | 0.00 | 80 | 1010.3 |
| 20260509091632 | 72 | 163 | 0.0 | 0.0 | 0.00 | 0.00 | 0.00 | 80 | 1010.4 |
| 20260509091129 | 72 | 163 | 0.0 | 0.0 | 0.00 | 0.00 | 0.00 | 80 | 1010.5 |
| 20260509090627 | 72 | 163 | 0.0 | 0.0 | 0.00 | 0.00 | 0.00 | 80 | 1010.5 |
| 20260509090127 | 72 | 163 | 0.0 | 0.0 | 0.00 | 0.00 | 0.00 | 80 | 1010.5 |
| 20260509085627 | 72 | 163 | 0.0 | 0.0 | 0.00 | 0.00 | 0.00 | 79 | 1010.6 |
| 20260509085124 | 72 | 163 | 0.0 | 0.0 | 0.00 | 0.00 | 0.00 | 79 | 1010.6 |
| 20260509084625 | 72 | 163 | 0.0 | 0.0 | 0.00 | 0.00 | 0.00 | 79 | 1010.5 |
| 20260509084122 | 72 | 163 | 0.0 | 0.0 | 0.00 | 0.00 | 0.00 | 79 | 1010.6 |
| 20260509083621 | 72 | 163 | 0.0 | 0.9 | 0.00 | 0.00 | 0.00 | 79 | 1010.7 |
| 20260509083121 | 72 | 163 | 0.0 | 0.9 | 0.00 | 0.00 | 0.00 | 78 | 1010.8 |
| 20260509082621 | 72 | 163 | 0.0 | 0.0 | 0.00 | 0.00 | 0.00 | 78 | 1011.0 |
| 20260509082119 | 72 | 163 | 0.0 | 0.9 | 0.00 | 0.00 | 0.00 | 78 | 1010.9 |
| 20260509081901 | 72 | 163 | 0.0 | 0.9 | 0.00 | 0.00 | 0.00 | 77 | 1010.7 |
| 20260509081116 | 72 | 163 | 0.0 | 0.9 | 0.00 | 0.00 | 0.00 | 77 | 1010.7 |
| 20260509080614 | 72 | 163 | 0.0 | 0.0 | 0.00 | 0.00 | 0.00 | 77 | 1010.9 |
| 20260509080115 | 73 | 163 | 0.0 | 0.0 | 0.00 | 0.00 | 0.00 | 76 | 1010.8 |
| 20260509075610 | 72 | 163 | 0.0 | 0.0 | 0.00 | 0.00 | 0.00 | 76 | 1011.0 |
| 20260509075109 | 73 | 163 | 0.0 | 0.0 | 0.00 | 0.00 | 0.00 | 76 | 1011.0 |
| 20260509074612 | 73 | 163 | 0.0 | 0.0 | 0.00 | 0.00 | 0.00 | 76 | 1010.9 |
| 20260509074111 | 73 | 163 | 0.0 | 0.0 | 0.00 | 0.00 | 0.00 | 75 | 1011.0 |
| 20260509073609 | 73 | 163 | 0.0 | 0.0 | 0.00 | 0.00 | 0.00 | 75 | 1011.0 |
| 20260509073349 | 73 | 163 | 0.0 | 0.0 | 0.00 | 0.00 | 0.00 | 74 | 1011.1 |
| 20260509072843 | 73 | 163 | 0.0 | 0.0 | 0.00 | 0.00 | 0.00 | 74 | 1011.3 |
| 20260509072105 | 73 | 163 | 0.0 | 0.0 | 0.00 | 0.00 | 0.00 | 74 | 1011.3 |
| 20260509071607 | 73 | 163 | 0.0 | 0.0 | 0.00 | 0.00 | 0.00 | 73 | 1011.5 |
| 20260509071341 | 73 | 163 | 0.0 | 0.0 | 0.00 | 0.00 | 0.00 | 73 | 1011.5 |
| 20260509070606 | 73 | 163 | 0.0 | 0.0 | 0.00 | 0.00 | 0.00 | 73 | 1011.4 |
| 20260509070107 | 73 | 163 | 0.0 | 0.0 | 0.00 | 0.00 | 0.00 | 72 | 1011.4 |
| 20260509065602 | 73 | 163 | 0.0 | 0.0 | 0.00 | 0.00 | 0.00 | 72 | 1011.0 |
| 20260509065101 | 73 | 163 | 0.0 | 0.0 | 0.00 | 0.00 | 0.00 | 72 | 1010.9 |
| 20260509064841 | 73 | 163 | 0.0 | 3.5 | 0.00 | 0.00 | 0.00 | 72 | 1010.9 |
| 20260509064102 | 73 | 163 | 0.9 | 3.5 | 0.00 | 0.00 | 0.00 | 71 | 1010.9 |
| 20260509063601 | 73 | 152 | 0.9 | 3.5 | 0.00 | 0.00 | 0.00 | 71 | 1011.2 |
| 20260509063344 | 73 | 145 | 1.7 | 4.3 | 0.00 | 0.00 | 0.00 | 71 | 1011.1 |
| 20260509062557 | 73 | 135 | 1.7 | 6.1 | 0.00 | 0.00 | 0.00 | 70 | 1011.0 |
| 20260509062058 | 73 | 137 | 0.9 | 6.1 | 0.00 | 0.00 | 0.00 | 70 | 1010.8 |
| 20260509061558 | 73 | 139 | 1.7 | 6.1 | 0.00 | 0.00 | 0.00 | 70 | 1010.7 |
| 20260509061340 | 73 | 147 | 1.7 | 6.1 | 0.00 | 0.00 | 0.00 | 70 | 1010.8 |
| 20260509060558 | 73 | 159 | 1.7 | 6.1 | 0.00 | 0.00 | 0.00 | 70 | 1010.6 |
| 20260509060059 | 73 | 163 | 2.6 | 7.8 | 0.00 | 0.00 | 0.00 | 70 | 1010.6 |
| 20260509055553 | 73 | 160 | 2.6 | 7.8 | 0.00 | 0.00 | 0.00 | 69 | 1010.6 |
| 20260509055054 | 73 | 179 | 2.6 | 6.1 | 0.00 | 0.00 | 0.00 | 69 | 1010.8 |
| 20260509054837 | 73 | 181 | 3.5 | 7.0 | 0.00 | 0.00 | 0.00 | 69 | 1010.8 |
| 20260509054053 | 73 | 161 | 3.5 | 8.7 | 0.00 | 0.00 | 0.00 | 69 | 1010.5 |
| 20260509053553 | 73 | 161 | 2.6 | 8.7 | 0.00 | 0.00 | 0.00 | 69 | 1010.3 |
| 20260509053055 | 73 | 140 | 2.6 | 6.1 | 0.00 | 0.00 | 0.00 | 69 | 1010.2 |
| 20260509052550 | 73 | 148 | 2.6 | 6.1 | 0.00 | 0.00 | 0.00 | 69 | 1010.2 |
| 20260509052049 | 73 | 148 | 2.6 | 6.1 | 0.00 | 0.00 | 0.00 | 69 | 1010.1 |
| 20260509051545 | 74 | 144 | 1.7 | 4.3 | 0.00 | 0.00 | 0.00 | 68 | 1010.2 |
| 20260509051043 | 74 | 153 | 1.7 | 4.3 | 0.00 | 0.00 | 0.00 | 68 | 1010.1 |
| 20260509050542 | 74 | 154 | 0.9 | 2.6 | 0.00 | 0.00 | 0.00 | 68 | 1010.0 |
| 20260509050042 | 74 | 150 | 0.9 | 2.6 | 0.00 | 0.00 | 0.00 | 68 | 1010.1 |
| 20260509045816 | 74 | 150 | 0.9 | 2.6 | 0.00 | 0.00 | 0.00 | 68 | 1010.1 |
| 20260509045323 | 74 | 147 | 0.9 | 2.6 | 0.00 | 0.00 | 0.00 | 68 | 1010.2 |
| 20260509044535 | 74 | 146 | 0.0 | 2.6 | 0.00 | 0.00 | 0.00 | 68 | 1010.2 |
| 20260509044032 | 74 | 147 | 0.9 | 3.5 | 0.00 | 0.00 | 0.00 | 68 | 1010.2 |
| 20260509043530 | 74 | 148 | 0.9 | 3.5 | 0.00 | 0.00 | 0.00 | 68 | 1010.3 |
| 20260509043029 | 74 | 145 | 0.9 | 2.6 | 0.00 | 0.00 | 0.00 | 68 | 1010.5 |
| 20260509042528 | 74 | 156 | 0.9 | 4.3 | 0.00 | 0.00 | 0.00 | 68 | 1010.4 |
| 20260509042025 | 74 | 138 | 0.9 | 4.3 | 0.00 | 0.00 | 0.00 | 68 | 1010.6 |
| 20260509041809 | 74 | 163 | 0.9 | 3.5 | 0.00 | 0.00 | 0.00 | 68 | 1010.6 |
| 20260509041307 | 74 | 163 | 0.9 | 4.3 | 0.00 | 0.00 | 0.00 | 68 | 1010.8 |
| 20260509040524 | 74 | 163 | 0.9 | 4.3 | 0.00 | 0.00 | 0.00 | 68 | 1010.8 |
| 20260509040022 | 74 | 165 | 0.9 | 4.3 | 0.00 | 0.00 | 0.00 | 68 | 1010.7 |
| 20260509035521 | 74 | 163 | 0.9 | 4.3 | 0.00 | 0.00 | 0.00 | 68 | 1010.6 |
| 20260509035016 | 74 | 154 | 0.9 | 4.3 | 0.00 | 0.00 | 0.00 | 68 | 1010.4 |
| 20260509034517 | 74 | 157 | 0.0 | 1.7 | 0.00 | 0.00 | 0.00 | 68 | 1010.4 |
| 20260509034018 | 73 | 156 | 0.0 | 2.6 | 0.00 | 0.00 | 0.00 | 68 | 1010.4 |
| 20260509033516 | 73 | 154 | 0.9 | 2.6 | 0.00 | 0.00 | 0.00 | 68 | 1010.4 |
| 20260509033016 | 74 | 148 | 0.9 | 4.3 | 0.00 | 0.00 | 0.00 | 67 | 1010.2 |
| 20260509032516 | 74 | 147 | 1.7 | 5.2 | 0.00 | 0.00 | 0.00 | 67 | 1010.2 |
| 20260509032014 | 74 | 163 | 1.7 | 5.2 | 0.00 | 0.00 | 0.00 | 67 | 1010.2 |
| 20260509031511 | 74 | 149 | 0.9 | 2.6 | 0.00 | 0.00 | 0.00 | 67 | 1010.3 |
| 20260509031011 | 74 | 143 | 0.9 | 2.6 | 0.00 | 0.00 | 0.00 | 67 | 1010.2 |
| 20260509030512 | 74 | 143 | 0.0 | 2.6 | 0.00 | 0.00 | 0.00 | 67 | 1010.2 |
| 20260509030011 | 74 | 142 | 0.0 | 0.0 | 0.00 | 0.00 | 0.00 | 67 | 1010.1 |
| 20260509025511 | 74 | 142 | 0.0 | 0.0 | 0.00 | 0.00 | 0.00 | 67 | 1010.1 |
| 20260509025006 | 74 | 142 | 0.0 | 0.0 | 0.00 | 0.00 | 0.00 | 67 | 1010.1 |
| 20260509024507 | 74 | 142 | 0.0 | 2.6 | 0.00 | 0.00 | 0.00 | 67 | 1010.0 |
| 20260509024002 | 74 | 142 | 0.9 | 2.6 | 0.00 | 0.00 | 0.00 | 66 | 1010.0 |
| 20260509023503 | 74 | 142 | 0.0 | 1.7 | 0.00 | 0.00 | 0.00 | 66 | 1009.9 |
| 20260509023004 | 75 | 142 | 0.9 | 4.3 | 0.00 | 0.00 | 0.00 | 66 | 1009.8 |
| 20260509022504 | 75 | 142 | 1.7 | 4.3 | 0.00 | 0.00 | 0.00 | 65 | 1009.7 |
| 20260509022000 | 75 | 142 | 0.9 | 2.6 | 0.00 | 0.00 | 0.00 | 65 | 1009.7 |
| 20260509021744 | 75 | 138 | 0.9 | 2.6 | 0.00 | 0.00 | 0.00 | 65 | 1009.6 |
| 20260509020959 | 75 | 138 | 0.9 | 4.3 | 0.00 | 0.00 | 0.00 | 65 | 1009.6 |
| 20260509020458 | 75 | 138 | 0.9 | 4.3 | 0.00 | 0.00 | 0.00 | 65 | 1009.5 |
| 20260509020236 | 75 | 139 | 1.7 | 4.3 | 0.00 | 0.00 | 0.00 | 64 | 1009.6 |
| 20260509015458 | 76 | 128 | 1.7 | 5.2 | 0.00 | 0.00 | 0.00 | 64 | 1009.4 |
| 20260509014952 | 76 | 140 | 2.6 | 6.1 | 0.00 | 0.00 | 0.00 | 64 | 1009.4 |
| 20260509014728 | 76 | 167 | 1.7 | 6.1 | 0.00 | 0.00 | 0.00 | 64 | 1009.3 |
| 20260509013951 | 76 | 137 | 1.7 | 5.2 | 0.00 | 0.00 | 0.00 | 64 | 1009.3 |
| 20260509013452 | 76 | 129 | 1.7 | 5.2 | 0.00 | 0.00 | 0.00 | 64 | 1009.3 |
| 20260509012952 | 76 | 148 | 1.7 | 5.2 | 0.00 | 0.00 | 0.00 | 63 | 1009.3 |
| 20260509012732 | 76 | 139 | 1.7 | 5.2 | 0.00 | 0.00 | 0.00 | 63 | 1009.3 |
| 20260509011946 | 77 | 156 | 1.7 | 5.2 | 0.00 | 0.00 | 0.00 | 63 | 1009.3 |
| 20260509011443 | 77 | 103 | 1.7 | 5.2 | 0.00 | 0.00 | 0.00 | 63 | 1009.3 |
| 20260509010942 | 77 | 152 | 1.7 | 5.2 | 0.00 | 0.00 | 0.00 | 63 | 1009.4 |
| 20260509010443 | 77 | 140 | 1.7 | 6.1 | 0.00 | 0.00 | 0.00 | 62 | 1009.3 |
| 20260509005944 | 77 | 154 | 1.7 | 6.1 | 0.00 | 0.00 | 0.00 | 62 | 1009.4 |
| 20260509005445 | 77 | 138 | 1.7 | 6.1 | 0.00 | 0.00 | 0.00 | 62 | 1009.3 |
| 20260509004942 | 77 | 158 | 2.6 | 6.1 | 0.00 | 0.00 | 0.00 | 62 | 1009.2 |
| 20260509004439 | 77 | 154 | 1.7 | 5.2 | 0.00 | 0.00 | 0.00 | 62 | 1009.1 |
| 20260509003939 | 78 | 162 | 1.7 | 5.2 | 0.00 | 0.00 | 0.00 | 62 | 1009.2 |
| 20260509003440 | 78 | 148 | 2.6 | 6.1 | 0.00 | 0.00 | 0.00 | 61 | 1009.3 |
| 20260509002938 | 78 | 132 | 2.6 | 6.1 | 0.00 | 0.00 | 0.00 | 61 | 1009.3 |
| 20260509002438 | 78 | 132 | 2.6 | 6.1 | 0.00 | 0.00 | 0.00 | 61 | 1009.4 |
| 20260509001932 | 78 | 114 | 3.5 | 7.8 | 0.00 | 0.00 | 0.00 | 61 | 1009.3 |
| 20260509001434 | 78 | 144 | 2.6 | 7.8 | 0.00 | 0.00 | 0.00 | 60 | 1009.3 |
| 20260509000931 | 78 | 154 | 2.6 | 7.0 | 0.00 | 0.00 | 0.00 | 60 | 1009.4 |
| 20260509000429 | 78 | 123 | 2.6 | 6.1 | 0.00 | 0.00 | 0.00 | 60 | 1009.4 |
| 20260508235929 | 78 | 128 | 2.6 | 6.1 | 0.00 | 0.00 | 0.00 | 60 | 1009.3 |
| 20260508235710 | 78 | 130 | 1.7 | 6.1 | 0.00 | 0.00 | 0.00 | 60 | 1009.4 |
| 20260508234924 | 78 | 117 | 1.7 | 5.2 | 0.00 | 0.00 | 0.00 | 60 | 1009.5 |
| 20260508234426 | 78 | 135 | 2.6 | 6.1 | 0.00 | 0.00 | 0.00 | 60 | 1009.5 |
| 20260508233925 | 78 | 91 | 1.7 | 6.1 | 0.00 | 0.00 | 0.00 | 60 | 1009.5 |
| 20260508233425 | 78 | 117 | 2.6 | 5.2 | 0.00 | 0.00 | 0.00 | 59 | 1009.5 |
| 20260508232924 | 78 | 127 | 2.6 | 7.0 | 0.00 | 0.00 | 0.00 | 59 | 1009.5 |
| 20260508232423 | 79 | 105 | 2.6 | 7.0 | 0.00 | 0.00 | 0.00 | 59 | 1009.4 |
| 20260508232208 | 79 | 90 | 1.7 | 5.2 | 0.00 | 0.00 | 0.00 | 58 | 1009.4 |
| 20260508231700 | 79 | 93 | 1.7 | 4.3 | 0.00 | 0.00 | 0.00 | 58 | 1009.4 |
| 20260508230916 | 79 | 122 | 0.9 | 6.1 | 0.00 | 0.00 | 0.00 | 58 | 1009.4 |
| 20260508230418 | 79 | 115 | 0.9 | 6.1 | 0.00 | 0.00 | 0.00 | 58 | 1009.3 |
| 20260508225912 | 79 | 115 | 1.7 | 7.0 | 0.00 | 0.00 | 0.00 | 58 | 1009.4 |
| 20260508225414 | 79 | 144 | 2.6 | 7.0 | 0.00 | 0.00 | 0.00 | 58 | 1009.4 |
| 20260508225154 | 79 | 126 | 2.6 | 6.1 | 0.00 | 0.00 | 0.00 | 58 | 1009.3 |
| 20260508224412 | 79 | 142 | 2.6 | 5.2 | 0.00 | 0.00 | 0.00 | 57 | 1009.4 |
| 20260508223914 | 79 | 118 | 2.6 | 7.8 | 0.00 | 0.00 | 0.00 | 57 | 1009.3 |
| 20260508223415 | 79 | 105 | 2.6 | 7.8 | 0.00 | 0.00 | 0.00 | 56 | 1009.3 |
| 20260508222910 | 80 | 126 | 1.7 | 7.0 | 0.00 | 0.00 | 0.00 | 56 | 1009.4 |
| 20260508222409 | 80 | 142 | 1.7 | 4.3 | 0.00 | 0.00 | 0.00 | 57 | 1009.3 |
| 20260508221909 | 80 | 94 | 1.7 | 7.0 | 0.00 | 0.00 | 0.00 | 56 | 1009.4 |
| 20260508221409 | 80 | 124 | 1.7 | 7.0 | 0.00 | 0.00 | 0.00 | 56 | 1009.3 |
| 20260508220909 | 80 | 138 | 2.6 | 6.1 | 0.00 | 0.00 | 0.00 | 57 | 1009.3 |
| 20260508220410 | 79 | 121 | 2.6 | 7.0 | 0.00 | 0.00 | 0.00 | 57 | 1009.4 |
| 20260508220143 | 79 | 140 | 1.7 | 7.0 | 0.00 | 0.00 | 0.00 | 57 | 1009.4 |
| 20260508215405 | 79 | 119 | 1.7 | 5.2 | 0.00 | 0.00 | 0.00 | 57 | 1009.6 |
| 20260508214905 | 79 | 127 | 2.6 | 7.0 | 0.00 | 0.00 | 0.00 | 57 | 1009.7 |
| 20260508214404 | 79 | 92 | 2.6 | 7.0 | 0.00 | 0.00 | 0.00 | 57 | 1009.6 |
| 20260508213906 | 79 | 71 | 2.6 | 6.1 | 0.00 | 0.00 | 0.00 | 57 | 1009.6 |
| 20260508213406 | 80 | 76 | 2.6 | 13.0 | 0.00 | 0.00 | 0.00 | 56 | 1009.7 |